QPF
0.00 0.00 0.01 0.00 0.00 0.00 0.00 0.00 0.00 0.00 0.00 0.00 0.00 0.00 0.01 0.01 0.01 0.00 0.01 0.00 0.00 0.01 0.01 0.01 0.01 0.01 0.01 0.01 0.01 0.01 0.01 0.01 0.01 0.01 0.01 0.01 0.01 0.01 0.01 0.01 0.01 0.01 0.02
0.00 0.00 0.01 0.01 0.01 0.00 0.00 0.00 0.00 0.00 0.00 0.00 0.01 0.01 0.01 0.01 0.01 0.01 0.01 0.00 0.00 0.01 0.01 0.01 0.01 0.01 0.01 0.01 0.01 0.00 0.00 0.00 0.00 0.00 0.00 0.00 0.01 0.01 0.01 0.01 0.01 0.01 0.01
0.00 0.00 0.01 0.01 0.01 0.01 0.01 0.00 0.00 0.00 0.00 0.00 0.01 0.01 0.01 0.01 0.01 0.01 0.01 0.00 0.01 0.01 0.01 0.01 0.01 0.00 0.00 0.00 0.00 0.00 0.00 0.00 0.00 0.00 0.00 0.00 0.01 0.01 0.01 0.00 0.01 0.01 0.01
0.00 0.00 0.00 0.01 0.01 0.01 0.01 0.01 0.01 0.01 0.00 0.01 0.01 0.01 0.01 0.01 0.01 0.02 0.01 0.01 0.01 0.02 0.01 0.01 0.01 0.00 0.00 0.00 0.00 0.00 0.00 0.00 0.00 0.00 0.00 0.00 0.00 0.00 0.00 0.01 0.00 0.00 0.00
0.00 0.00 0.01 0.02 0.02 0.02 0.02 0.01 0.01 0.01 0.01 0.01 0.02 0.02 0.01 0.02 0.02 0.02 0.01 0.01 0.01 0.02 0.01 0.00 0.00 0.00 0.00 0.00 0.00 0.00 0.00 0.00 0.00 0.00 0.00 0.00 0.00 0.00 0.00 0.00 0.00 0.00 0.00
0.02 0.01 0.02 0.04 0.04 0.04 0.04 0.04 0.03 0.02 0.01 0.01 0.02 0.02 0.03 0.03 0.04 0.03 0.02 0.01 0.01 0.01 0.01 0.00 0.00 0.00 0.00 0.00 0.00 0.00 0.00 0.00 0.00 0.00 0.00 0.00 0.00 0.00 0.00 0.00 0.00 0.00 0.00
0.03 0.04 0.04 0.04 0.05 0.05 0.06 0.05 0.04 0.02 0.02 0.02 0.02 0.03 0.03 0.04 0.05 0.06 0.03 0.02 0.02 0.02 0.01 0.00 0.00 0.00 0.00 0.00 0.00 0.00 0.00 0.00 0.00 0.00 0.00 0.00 0.00 0.00 0.00 0.00 0.00 0.00 0.00
0.06 0.07 0.07 0.08 0.07 0.06 0.06 0.06 0.05 0.03 0.02 0.02 0.02 0.03 0.04 0.06 0.07 0.06 0.05 0.03 0.01 0.02 0.01 0.00 0.00 0.00 0.00 0.00 0.00 0.00 0.00 0.00 0.00 0.00 0.00 0.00 0.00 0.00 0.00 0.00 0.00 0.00 0.00
0.09 0.10 0.10 0.10 0.11 0.09 0.08 0.08 0.07 0.06 0.04 0.03 0.03 0.04 0.05 0.07 0.07 0.06 0.05 0.03 0.02 0.01 0.01 0.00 0.00 0.00 0.00 0.00 0.00 0.00 0.00 0.00 0.00 0.00 0.00 0.00 0.00 0.00 0.00 0.00 0.00 0.00 0.00
0.09 0.11 0.12 0.14 0.14 0.12 0.10 0.09 0.08 0.07 0.05 0.04 0.03 0.04 0.05 0.07 0.08 0.06 0.05 0.04 0.02 0.01 0.01 0.00 0.00 0.00 0.00 0.00 0.00 0.00 0.00 0.00 0.00 0.00 0.00 0.00 0.00 0.00 0.00 0.00 0.00 0.00 0.00
0.07 0.09 0.11 0.14 0.16 0.15 0.13 0.11 0.11 0.09 0.07 0.07 0.05 0.04 0.04 0.06 0.08 0.06 0.04 0.03 0.02 0.01 0.01 0.00 0.00 0.00 0.00 0.00 0.00 0.00 0.00 0.00 0.00 0.00 0.00 0.00 0.00 0.00 0.00 0.00 0.00 0.00 0.00
0.07 0.07 0.09 0.11 0.15 0.17 0.15 0.12 0.12 0.11 0.09 0.07 0.05 0.05 0.05 0.05 0.07 0.05 0.04 0.03 0.02 0.02 0.01 0.00 0.00 0.00 0.00 0.00 0.00 0.00 0.00 0.00 0.00 0.00 0.00 0.00 0.00 0.00 0.00 0.00 0.00 0.00 0.00
0.08 0.08 0.08 0.08 0.11 0.15 0.16 0.15 0.14 0.12 0.11 0.08 0.06 0.06 0.06 0.06 0.06 0.06 0.04 0.03 0.02 0.01 0.00 0.00 0.00 0.00 0.00 0.00 0.00 0.00 0.00 0.00 0.00 0.00 0.00 0.00 0.00 0.00 0.00 0.00 0.00 0.00 0.00
0.09 0.09 0.08 0.08 0.07 0.09 0.11 0.15 0.15 0.13 0.12 0.11 0.09 0.07 0.07 0.06 0.05 0.04 0.03 0.03 0.02 0.01 0.00 0.00 0.00 0.00 0.00 0.00 0.00 0.00 0.00 0.00 0.00 0.00 0.00 0.00 0.00 0.00 0.00 0.00 0.00 0.00 0.00
0.10 0.12 0.09 0.08 0.07 0.07 0.08 0.11 0.13 0.13 0.12 0.12 0.12 0.11 0.09 0.08 0.07 0.04 0.03 0.03 0.03 0.02 0.01 0.00 0.00 0.00 0.00 0.00 0.00 0.00 0.00 0.00 0.00 0.00 0.00 0.00 0.00 0.00 0.00 0.00 0.00 0.01 0.01
0.06 0.12 0.14 0.11 0.08 0.08 0.08 0.10 0.13 0.12 0.12 0.14 0.13 0.12 0.12 0.11 0.11 0.09 0.05 0.04 0.04 0.03 0.02 0.01 0.00 0.00 0.00 0.00 0.00 0.00 0.00 0.00 0.00 0.00 0.00 0.00 0.00 0.00 0.00 0.00 0.00 0.01 0.01
0.03 0.07 0.10 0.12 0.11 0.09 0.10 0.11 0.12 0.11 0.11 0.13 0.15 0.14 0.14 0.13 0.12 0.12 0.09 0.06 0.06 0.05 0.04 0.03 0.01 0.00 0.00 0.00 0.00 0.00 0.00 0.00 0.00 0.00 0.00 0.00 0.00 0.00 0.00 0.00 0.00 0.00 0.01
0.02 0.04 0.04 0.07 0.09 0.10 0.12 0.13 0.12 0.12 0.11 0.11 0.15 0.19 0.17 0.17 0.16 0.15 0.13 0.08 0.06 0.06 0.05 0.03 0.02 0.01 0.00 0.00 0.00 0.00 0.00 0.00 0.00 0.00 0.00 0.00 0.00 0.00 0.00 0.00 0.00 0.00 0.01
0.03 0.05 0.04 0.04 0.06 0.08 0.12 0.17 0.16 0.13 0.13 0.12 0.13 0.16 0.18 0.17 0.18 0.18 0.18 0.15 0.10 0.06 0.05 0.05 0.03 0.02 0.01 0.00 0.00 0.00 0.00 0.00 0.00 0.00 0.00 0.00 0.00 0.00 0.00 0.00 0.00 0.00 0.00
0.06 0.07 0.06 0.06 0.07 0.08 0.10 0.16 0.20 0.18 0.15 0.14 0.13 0.13 0.15 0.18 0.17 0.16 0.16 0.18 0.16 0.11 0.06 0.04 0.04 0.03 0.02 0.01 0.00 0.00 0.00 0.00 0.00 0.00 0.00 0.00 0.00 0.00 0.00 0.00 0.00 0.00 0.00
0.08 0.07 0.06 0.08 0.08 0.09 0.10 0.14 0.20 0.21 0.19 0.16 0.14 0.13 0.14 0.15 0.18 0.17 0.13 0.12 0.13 0.12 0.09 0.06 0.04 0.03 0.03 0.02 0.01 0.01 0.00 0.00 0.00 0.00 0.00 0.00 0.00 0.00 0.00 0.00 0.00 0.00 0.00
0.06 0.06 0.07 0.08 0.11 0.11 0.11 0.14 0.18 0.20 0.21 0.19 0.17 0.15 0.15 0.14 0.16 0.19 0.18 0.13 0.10 0.09 0.09 0.08 0.05 0.03 0.03 0.03 0.03 0.03 0.02 0.01 0.01 0.00 0.00 0.00 0.00 0.00 0.00 0.00 0.00 0.00 0.00
0.06 0.06 0.06 0.07 0.12 0.13 0.12 0.14 0.17 0.20 0.22 0.22 0.20 0.17 0.15 0.15 0.15 0.16 0.18 0.17 0.13 0.09 0.09 0.09 0.07 0.04 0.04 0.04 0.04 0.04 0.03 0.02 0.01 0.01 0.00 0.01 0.01 0.01 0.01 0.01 0.01 0.01 0.01
0.10 0.10 0.08 0.07 0.08 0.12 0.13 0.12 0.13 0.16 0.19 0.20 0.20 0.18 0.16 0.15 0.14 0.14 0.15 0.16 0.15 0.11 0.08 0.08 0.09 0.07 0.05 0.04 0.04 0.04 0.03 0.02 0.02 0.01 0.01 0.01 0.01 0.01 0.01 0.01 0.01 0.01 0.00
0.12 0.17 0.15 0.12 0.11 0.12 0.13 0.12 0.11 0.12 0.13 0.14 0.18 0.21 0.23 0.22 0.20 0.18 0.17 0.17 0.16 0.13 0.10 0.08 0.08 0.08 0.07 0.05 0.05 0.05 0.05 0.05 0.04 0.04 0.02 0.02 0.01 0.01 0.01 0.01 0.00 0.00 0.00
0.16 0.22 0.25 0.18 0.15 0.15 0.16 0.16 0.15 0.14 0.13 0.12 0.13 0.16 0.21 0.26 0.28 0.25 0.20 0.18 0.17 0.16 0.14 0.12 0.11 0.10 0.10 0.09 0.08 0.08 0.07 0.06 0.05 0.05 0.05 0.04 0.03 0.02 0.01 0.01 0.01 0.01 0.01
MSLP
1010.74 1010.42 1010.39 1010.63 1011.03 1011.51 1011.96 1012.32 1012.56 1012.68 1012.75 1012.82 1012.94 1013.14 1013.42 1013.76 1014.10 1014.39 1014.61 1014.75 1014.82 1014.87 1014.93 1015.05 1015.24 1015.51 1015.81 1016.12 1016.41 1016.63 1016.80 1016.90 1016.97 1017.02 1017.07 1017.14 1017.22 1017.30 1017.37 1017.43 1017.45 1017.45 1017.44
1010.76 1010.46 1010.44 1010.67 1011.08 1011.56 1012.02 1012.39 1012.65 1012.81 1012.91 1013.00 1013.15 1013.37 1013.67 1014.02 1014.37 1014.67 1014.89 1015.03 1015.10 1015.15 1015.20 1015.31 1015.49 1015.72 1016.00 1016.29 1016.55 1016.77 1016.93 1017.04 1017.13 1017.21 1017.29 1017.38 1017.48 1017.58 1017.66 1017.71 1017.73 1017.73 1017.71
1010.72 1010.45 1010.45 1010.69 1011.10 1011.58 1012.06 1012.46 1012.75 1012.94 1013.06 1013.19 1013.35 1013.58 1013.88 1014.23 1014.57 1014.87 1015.09 1015.24 1015.32 1015.38 1015.44 1015.55 1015.72 1015.94 1016.20 1016.47 1016.71 1016.92 1017.09 1017.22 1017.33 1017.43 1017.54 1017.66 1017.78 1017.88 1017.96 1018.01 1018.02 1018.02 1018.00
1010.66 1010.43 1010.45 1010.71 1011.12 1011.62 1012.10 1012.52 1012.83 1013.04 1013.19 1013.33 1013.49 1013.72 1014.00 1014.33 1014.65 1014.95 1015.17 1015.34 1015.44 1015.53 1015.62 1015.75 1015.93 1016.15 1016.40 1016.66 1016.90 1017.11 1017.28 1017.43 1017.56 1017.69 1017.83 1017.96 1018.08 1018.19 1018.26 1018.30 1018.31 1018.30 1018.28
1010.65 1010.46 1010.51 1010.78 1011.19 1011.68 1012.16 1012.58 1012.89 1013.11 1013.26 1013.39 1013.55 1013.75 1014.01 1014.30 1014.61 1014.89 1015.13 1015.32 1015.47 1015.60 1015.74 1015.91 1016.11 1016.35 1016.60 1016.86 1017.10 1017.31 1017.49 1017.66 1017.81 1017.96 1018.11 1018.25 1018.38 1018.48 1018.54 1018.57 1018.57 1018.56 1018.54
1010.75 1010.60 1010.67 1010.93 1011.33 1011.79 1012.25 1012.64 1012.93 1013.13 1013.26 1013.37 1013.50 1013.67 1013.90 1014.17 1014.46 1014.74 1015.00 1015.23 1015.42 1015.61 1015.81 1016.03 1016.27 1016.53 1016.80 1017.06 1017.30 1017.52 1017.71 1017.89 1018.06 1018.22 1018.37 1018.52 1018.63 1018.72 1018.78 1018.79 1018.79 1018.78 1018.77
1011.00 1010.87 1010.94 1011.18 1011.54 1011.95 1012.35 1012.69 1012.94 1013.11 1013.21 1013.29 1013.39 1013.53 1013.73 1013.98 1014.25 1014.54 1014.83 1015.09 1015.35 1015.59 1015.85 1016.12 1016.40 1016.70 1016.98 1017.25 1017.49 1017.71 1017.91 1018.09 1018.26 1018.43 1018.59 1018.72 1018.83 1018.91 1018.95 1018.96 1018.96 1018.95 1018.96
1011.40 1011.27 1011.31 1011.51 1011.80 1012.15 1012.47 1012.74 1012.94 1013.06 1013.12 1013.18 1013.25 1013.37 1013.55 1013.79 1014.06 1014.36 1014.67 1014.97 1015.28 1015.59 1015.90 1016.21 1016.53 1016.84 1017.14 1017.41 1017.65 1017.87 1018.06 1018.25 1018.42 1018.58 1018.73 1018.86 1018.96 1019.03 1019.07 1019.07 1019.08 1019.08 1019.11
1011.90 1011.75 1011.75 1011.88 1012.09 1012.35 1012.59 1012.79 1012.92 1012.99 1013.03 1013.07 1013.13 1013.25 1013.42 1013.65 1013.93 1014.24 1014.57 1014.91 1015.25 1015.60 1015.95 1016.31 1016.65 1016.97 1017.27 1017.54 1017.77 1017.98 1018.17 1018.34 1018.51 1018.67 1018.81 1018.93 1019.03 1019.09 1019.13 1019.14 1019.15 1019.17 1019.22
1012.41 1012.23 1012.17 1012.23 1012.36 1012.53 1012.68 1012.80 1012.88 1012.93 1012.95 1012.99 1013.06 1013.18 1013.36 1013.60 1013.88 1014.20 1014.54 1014.90 1015.27 1015.65 1016.03 1016.40 1016.75 1017.08 1017.37 1017.63 1017.86 1018.05 1018.22 1018.39 1018.54 1018.69 1018.83 1018.95 1019.04 1019.10 1019.14 1019.17 1019.19 1019.22 1019.28
1012.86 1012.64 1012.53 1012.51 1012.56 1012.64 1012.72 1012.78 1012.83 1012.86 1012.89 1012.95 1013.04 1013.18 1013.37 1013.61 1013.90 1014.22 1014.56 1014.93 1015.31 1015.70 1016.09 1016.47 1016.83 1017.16 1017.45 1017.70 1017.91 1018.09 1018.25 1018.39 1018.54 1018.67 1018.80 1018.92 1019.01 1019.08 1019.12 1019.16 1019.19 1019.23 1019.30
1013.18 1012.93 1012.77 1012.68 1012.66 1012.66 1012.68 1012.71 1012.74 1012.78 1012.83 1012.91 1013.04 1013.20 1013.41 1013.65 1013.94 1014.25 1014.59 1014.95 1015.34 1015.73 1016.13 1016.52 1016.89 1017.23 1017.51 1017.75 1017.95 1018.11 1018.25 1018.38 1018.51 1018.63 1018.74 1018.85 1018.94 1019.02 1019.07 1019.11 1019.16 1019.20 1019.27
1013.34 1013.07 1012.87 1012.73 1012.64 1012.59 1012.57 1012.58 1012.61 1012.66 1012.75 1012.87 1013.03 1013.22 1013.43 1013.68 1013.95 1014.25 1014.58 1014.94 1015.32 1015.72 1016.13 1016.54 1016.92 1017.26 1017.56 1017.80 1017.99 1018.14 1018.26 1018.36 1018.46 1018.56 1018.66 1018.76 1018.85 1018.92 1018.99 1019.04 1019.08 1019.13 1019.18
1013.36 1013.07 1012.84 1012.65 1012.52 1012.43 1012.38 1012.39 1012.43 1012.52 1012.65 1012.80 1012.99 1013.19 1013.41 1013.65 1013.91 1014.19 1014.50 1014.85 1015.24 1015.65 1016.08 1016.51 1016.91 1017.27 1017.58 1017.83 1018.02 1018.16 1018.27 1018.35 1018.41 1018.48 1018.55 1018.63 1018.71 1018.79 1018.86 1018.92 1018.98 1019.02 1019.06
1013.24 1012.95 1012.70 1012.48 1012.31 1012.20 1012.15 1012.16 1012.23 1012.35 1012.51 1012.70 1012.90 1013.12 1013.33 1013.56 1013.79 1014.06 1014.36 1014.71 1015.10 1015.52 1015.98 1016.43 1016.87 1017.26 1017.59 1017.86 1018.05 1018.18 1018.27 1018.31 1018.35 1018.37 1018.41 1018.47 1018.53 1018.61 1018.69 1018.77 1018.83 1018.87 1018.90
1013.02 1012.74 1012.47 1012.23 1012.05 1011.92 1011.87 1011.90 1012.00 1012.15 1012.35 1012.56 1012.79 1013.00 1013.21 1013.41 1013.63 1013.88 1014.17 1014.52 1014.91 1015.36 1015.84 1016.33 1016.79 1017.22 1017.57 1017.85 1018.05 1018.17 1018.23 1018.25 1018.24 1018.23 1018.23 1018.25 1018.30 1018.38 1018.47 1018.56 1018.65 1018.71 1018.74
1012.72 1012.44 1012.17 1011.93 1011.74 1011.62 1011.58 1011.64 1011.77 1011.95 1012.18 1012.41 1012.64 1012.86 1013.05 1013.24 1013.45 1013.68 1013.97 1014.31 1014.72 1015.19 1015.68 1016.19 1016.68 1017.13 1017.51 1017.80 1018.00 1018.11 1018.15 1018.14 1018.09 1018.03 1017.99 1017.99 1018.02 1018.10 1018.20 1018.33 1018.44 1018.54 1018.59
1012.33 1012.07 1011.80 1011.56 1011.38 1011.28 1011.27 1011.36 1011.52 1011.75 1011.99 1012.25 1012.49 1012.70 1012.89 1013.07 1013.26 1013.49 1013.77 1014.12 1014.53 1015.00 1015.51 1016.02 1016.52 1016.98 1017.36 1017.66 1017.86 1017.97 1017.99 1017.95 1017.87 1017.78 1017.71 1017.67 1017.69 1017.77 1017.90 1018.06 1018.22 1018.36 1018.45
1011.86 1011.61 1011.35 1011.13 1010.97 1010.90 1010.93 1011.05 1011.26 1011.51 1011.79 1012.06 1012.30 1012.52 1012.70 1012.88 1013.07 1013.30 1013.58 1013.93 1014.33 1014.79 1015.29 1015.79 1016.28 1016.73 1017.11 1017.41 1017.61 1017.72 1017.75 1017.69 1017.59 1017.48 1017.38 1017.33 1017.34 1017.43 1017.58 1017.77 1017.99 1018.17 1018.31
1011.30 1011.06 1010.82 1010.62 1010.49 1010.46 1010.53 1010.70 1010.95 1011.23 1011.53 1011.82 1012.07 1012.29 1012.47 1012.65 1012.85 1013.07 1013.35 1013.69 1014.08 1014.51 1014.98 1015.46 1015.92 1016.35 1016.72 1017.02 1017.24 1017.36 1017.40 1017.36 1017.26 1017.15 1017.04 1016.98 1016.99 1017.08 1017.25 1017.48 1017.74 1017.97 1018.16
1010.68 1010.44 1010.22 1010.05 1009.96 1009.97 1010.09 1010.30 1010.58 1010.89 1011.21 1011.50 1011.75 1011.96 1012.15 1012.34 1012.53 1012.76 1013.03 1013.35 1013.71 1014.12 1014.54 1014.98 1015.40 1015.81 1016.17 1016.48 1016.72 1016.88 1016.95 1016.95 1016.89 1016.79 1016.70 1016.65 1016.66 1016.76 1016.94 1017.19 1017.48 1017.75 1017.97
1010.06 1009.83 1009.62 1009.47 1009.42 1009.47 1009.62 1009.86 1010.16 1010.48 1010.79 1011.08 1011.32 1011.52 1011.70 1011.88 1012.07 1012.30 1012.56 1012.86 1013.19 1013.55 1013.92 1014.31 1014.70 1015.09 1015.45 1015.78 1016.06 1016.28 1016.42 1016.48 1016.48 1016.44 1016.38 1016.35 1016.37 1016.47 1016.66 1016.91 1017.21 1017.50 1017.74
1009.55 1009.32 1009.12 1008.99 1008.96 1009.03 1009.20 1009.45 1009.74 1010.04 1010.33 1010.57 1010.78 1010.96 1011.11 1011.27 1011.45 1011.66 1011.90 1012.17 1012.46 1012.78 1013.11 1013.45 1013.81 1014.18 1014.55 1014.92 1015.26 1015.56 1015.79 1015.95 1016.04 1016.07 1016.06 1016.07 1016.11 1016.22 1016.40 1016.65 1016.94 1017.22 1017.47
1009.29 1009.05 1008.85 1008.72 1008.69 1008.77 1008.92 1009.15 1009.40 1009.65 1009.87 1010.05 1010.20 1010.31 1010.43 1010.55 1010.69 1010.87 1011.07 1011.31 1011.56 1011.82 1012.11 1012.41 1012.74 1013.11 1013.51 1013.93 1014.34 1014.74 1015.08 1015.35 1015.54 1015.66 1015.73 1015.78 1015.86 1015.97 1016.15 1016.38 1016.65 1016.92 1017.15
1009.39 1009.13 1008.91 1008.77 1008.73 1008.77 1008.89 1009.05 1009.23 1009.39 1009.52 1009.60 1009.65 1009.69 1009.73 1009.78 1009.87 1010.00 1010.16 1010.35 1010.55 1010.76 1011.00 1011.27 1011.58 1011.95 1012.37 1012.84 1013.34 1013.83 1014.27 1014.66 1014.96 1015.18 1015.33 1015.45 1015.56 1015.70 1015.88 1016.10 1016.36 1016.61 1016.82
1009.90 1009.62 1009.39 1009.22 1009.13 1009.12 1009.17 1009.25 1009.32 1009.37 1009.37 1009.33 1009.27 1009.19 1009.13 1009.11 1009.12 1009.18 1009.27 1009.39 1009.54 1009.69 1009.88 1010.11 1010.40 1010.76 1011.21 1011.72 1012.27 1012.84 1013.39 1013.87 1014.27 1014.58 1014.82 1015.00 1015.17 1015.34 1015.54 1015.78 1016.03 1016.28 1016.49
Thickness
5760 5763 5764 5763 5761 5759 5758 5757 5757 5757 5757 5756 5756 5755 5753 5752 5751 5750 5749 5749 5748 5747 5746 5745 5744 5742 5741 5739 5737 5735 5734 5733 5732 5731 5731 5730 5730 5729 5729 5728 5727 5727 5726
5758 5759 5759 5758 5756 5755 5754 5753 5753 5752 5752 5752 5752 5751 5750 5749 5748 5747 5746 5746 5745 5744 5743 5742 5741 5739 5738 5736 5734 5732 5731 5730 5729 5728 5727 5727 5726 5726 5725 5725 5724 5724 5723
5754 5755 5754 5753 5752 5750 5749 5748 5748 5747 5747 5747 5747 5747 5746 5745 5744 5744 5743 5742 5742 5741 5740 5739 5738 5736 5734 5733 5731 5729 5728 5727 5726 5725 5724 5724 5723 5723 5722 5721 5721 5720 5720
5749 5749 5749 5748 5747 5745 5744 5743 5743 5742 5742 5743 5743 5742 5742 5742 5741 5740 5740 5739 5738 5738 5737 5736 5734 5733 5731 5730 5728 5726 5725 5724 5722 5722 5721 5721 5720 5720 5719 5718 5718 5717 5716
5742 5743 5743 5743 5741 5740 5739 5738 5738 5737 5737 5737 5738 5738 5738 5737 5737 5736 5736 5735 5735 5734 5733 5732 5730 5729 5727 5726 5725 5724 5722 5721 5719 5718 5718 5717 5717 5717 5716 5715 5714 5713 5713
5734 5736 5736 5736 5736 5735 5734 5733 5733 5732 5732 5732 5733 5733 5733 5733 5732 5732 5731 5731 5730 5729 5728 5727 5726 5724 5723 5723 5722 5721 5719 5718 5716 5715 5715 5714 5714 5713 5712 5711 5711 5710 5709
5725 5727 5729 5729 5729 5729 5728 5728 5727 5727 5727 5727 5728 5728 5728 5728 5728 5727 5727 5726 5725 5725 5724 5723 5722 5720 5720 5719 5718 5717 5716 5715 5713 5712 5711 5711 5711 5710 5709 5708 5707 5707 5706
5715 5718 5720 5721 5722 5722 5722 5722 5722 5722 5722 5722 5723 5723 5723 5723 5723 5722 5722 5721 5720 5720 5719 5718 5717 5716 5716 5715 5714 5713 5712 5711 5710 5709 5708 5708 5708 5707 5706 5705 5704 5703 5702
5705 5708 5711 5713 5714 5715 5715 5716 5716 5716 5717 5717 5717 5718 5718 5718 5718 5717 5717 5716 5716 5715 5714 5714 5713 5712 5712 5711 5710 5709 5709 5708 5707 5706 5705 5704 5704 5704 5703 5701 5700 5699 5699
5693 5697 5700 5703 5705 5707 5708 5709 5710 5710 5711 5711 5712 5712 5712 5712 5712 5711 5711 5711 5711 5710 5709 5709 5708 5708 5707 5706 5706 5705 5704 5704 5703 5702 5702 5701 5700 5700 5699 5698 5697 5696 5695
5681 5685 5690 5693 5696 5698 5700 5701 5703 5704 5704 5704 5705 5706 5706 5706 5706 5706 5706 5705 5705 5705 5704 5704 5703 5703 5702 5702 5701 5701 5700 5699 5699 5698 5698 5697 5697 5696 5695 5694 5693 5693 5692
5667 5674 5679 5683 5687 5690 5692 5694 5695 5697 5697 5698 5699 5699 5699 5700 5700 5700 5700 5700 5699 5699 5699 5699 5698 5698 5697 5696 5696 5696 5696 5695 5695 5694 5694 5694 5693 5693 5692 5691 5690 5689 5688
5655 5662 5669 5673 5677 5681 5684 5686 5687 5689 5690 5691 5692 5693 5693 5693 5694 5693 5693 5693 5693 5693 5693 5693 5693 5692 5692 5691 5691 5691 5691 5690 5690 5690 5690 5690 5689 5689 5688 5687 5686 5685 5684
5644 5651 5658 5664 5668 5672 5675 5678 5680 5682 5683 5684 5686 5687 5687 5687 5687 5687 5688 5688 5687 5687 5687 5687 5687 5687 5686 5686 5686 5686 5686 5686 5686 5686 5686 5685 5685 5685 5684 5683 5682 5681 5681
5633 5641 5647 5653 5658 5662 5666 5669 5673 5675 5677 5679 5680 5681 5682 5682 5682 5682 5681 5682 5682 5682 5681 5681 5681 5681 5680 5680 5680 5681 5681 5681 5681 5681 5681 5681 5681 5680 5679 5679 5678 5677 5676
5623 5631 5637 5643 5648 5652 5656 5660 5665 5668 5670 5672 5673 5675 5676 5676 5677 5676 5676 5676 5676 5676 5676 5675 5675 5675 5674 5674 5675 5675 5676 5676 5676 5676 5676 5676 5676 5675 5674 5674 5673 5673 5672
5614 5621 5626 5632 5638 5642 5648 5652 5657 5660 5662 5665 5667 5668 5669 5670 5671 5671 5671 5671 5671 5670 5669 5668 5667 5668 5668 5668 5669 5669 5670 5670 5671 5671 5671 5671 5671 5670 5669 5668 5668 5667 5667
5604 5610 5616 5622 5628 5633 5638 5643 5648 5651 5654 5658 5659 5662 5663 5664 5664 5665 5665 5666 5665 5664 5663 5662 5662 5661 5661 5662 5662 5663 5664 5664 5665 5665 5665 5665 5665 5664 5664 5662 5662 5661 5661
5594 5600 5606 5611 5617 5623 5628 5633 5639 5642 5646 5649 5652 5655 5657 5658 5658 5659 5659 5660 5659 5658 5657 5657 5656 5656 5655 5655 5655 5656 5657 5658 5658 5659 5659 5659 5659 5659 5658 5657 5655 5655 5654
5584 5589 5595 5601 5607 5613 5618 5623 5628 5632 5637 5641 5645 5648 5650 5651 5652 5653 5653 5653 5652 5652 5651 5651 5651 5650 5649 5648 5647 5647 5648 5650 5651 5652 5653 5653 5653 5652 5652 5651 5649 5649 5648
5574 5579 5584 5590 5596 5601 5606 5613 5618 5623 5628 5633 5637 5640 5643 5646 5647 5648 5648 5647 5647 5647 5647 5647 5644 5642 5642 5641 5637 5637 5639 5641 5643 5645 5646 5646 5646 5646 5645 5644 5643 5642 5642
5564 5569 5575 5581 5586 5592 5598 5605 5610 5615 5620 5625 5629 5633 5636 5639 5641 5642 5643 5643 5642 5642 5641 5641 5639 5637 5636 5635 5633 5629 5628 5631 5635 5638 5639 5639 5639 5639 5638 5637 5636 5635 5634
5555 5560 5568 5572 5578 5583 5589 5594 5600 5604 5610 5615 5620 5624 5629 5632 5634 5635 5637 5637 5637 5636 5636 5637 5635 5634 5632 5630 5631 5628 5625 5626 5627 5629 5630 5632 5632 5631 5630 5630 5628 5627 5626
5548 5554 5560 5564 5570 5575 5581 5585 5590 5596 5602 5608 5613 5616 5620 5624 5627 5630 5630 5631 5631 5631 5631 5632 5632 5631 5629 5625 5624 5626 5628 5628 5623 5621 5621 5622 5623 5623 5623 5622 5621 5620 5619
5542 5547 5552 5557 5562 5567 5572 5578 5582 5589 5594 5599 5604 5607 5611 5615 5619 5622 5624 5624 5625 5625 5626 5626 5626 5625 5625 5624 5622 5620 5619 5618 5619 5618 5615 5614 5613 5614 5614 5614 5613 5612 5611
5534 5539 5544 5549 5554 5559 5564 5569 5575 5580 5585 5590 5595 5599 5603 5607 5610 5613 5616 5618 5619 5620 5621 5621 5621 5621 5620 5619 5619 5618 5617 5615 5614 5612 5610 5608 5606 5606 5605 5605 5605 5604 5603